owner,sensor,date,latitude,longitude,vertical_datum,sea_water_practical_salinity,qcFlag 
DISL,ioos:station:DISL:CATA:1,2013-07-01T00:00:00Z,30.3085,-88.1395,2.372,7.93,1111122 
DISL,ioos:station:DISL:CATA:1,2013-07-01T00:30:00Z,30.3085,-88.1395,2.386,8.0,1111122 
DISL,ioos:station:DISL:CATA:1,2013-07-01T01:00:00Z,30.3085,-88.1395,2.392,8.47,1111122 
DISL,ioos:station:DISL:CATA:1,2013-07-01T01:30:00Z,30.3085,-88.1395,2.375,8.78,1111122 
DISL,ioos:station:DISL:CATA:1,2013-07-01T02:00:00Z,30.3085,-88.1395,2.364,8.99,1111122 
DISL,ioos:station:DISL:CATA:1,2013-07-01T02:30:00Z,30.3085,-88.1395,2.384,9.5,1111122 
DISL,ioos:station:DISL:CATA:1,2013-07-01T03:00:00Z,30.3085,-88.1395,2.402,9.66,1111122 
DISL,ioos:station:DISL:CATA:1,2013-07-01T03:30:00Z,30.3085,-88.1395,2.422,9.54,1111122 
DISL,ioos:station:DISL:CATA:1,2013-07-01T04:00:00Z,30.3085,-88.1395,2.426,9.5,1111122 
DISL,ioos:station:DISL:CATA:1,2013-07-01T04:30:00Z,30.3085,-88.1395,2.445,9.5,1111122 
DISL,ioos:station:DISL:CATA:1,2013-07-01T05:00:00Z,30.3085,-88.1395,2.444,9.6,1111122 
DISL,ioos:station:DISL:CATA:1,2013-07-01T05:30:00Z,30.3085,-88.1395,2.441,10.02,1111122 
DISL,ioos:station:DISL:CATA:1,2013-07-01T06:00:00Z,30.3085,-88.1395,2.459,11.04,1111122 
DISL,ioos:station:DISL:CATA:1,2013-07-01T06:30:00Z,30.3085,-88.1395,2.473,11.97,1111122 
DISL,ioos:station:DISL:CATA:1,2013-07-01T07:00:00Z,30.3085,-88.1395,2.463,11.35,1111122 
DISL,ioos:station:DISL:CATA:1,2013-07-01T07:30:00Z,30.3085,-88.1395,2.467,11.41,1111122 
DISL,ioos:station:DISL:CATA:1,2013-07-01T08:00:00Z,30.3085,-88.1395,2.485,14.18,1111122 
DISL,ioos:station:DISL:CATA:1,2013-07-01T08:30:00Z,30.3085,-88.1395,2.5,14.76,1111122 
DISL,ioos:station:DISL:CATA:1,2013-07-01T09:00:00Z,30.3085,-88.1395,2.511,16.16,1111122 
DISL,ioos:station:DISL:CATA:1,2013-07-01T09:30:00Z,30.3085,-88.1395,2.529,17.42,1111122 
DISL,ioos:station:DISL:CATA:1,2013-07-01T10:00:00Z,30.3085,-88.1395,2.556,17.99,1111122 
DISL,ioos:station:DISL:CATA:1,2013-07-01T10:30:00Z,30.3085,-88.1395,2.566,18.14,1111122 
DISL,ioos:station:DISL:CATA:1,2013-07-01T11:00:00Z,30.3085,-88.1395,2.574,17.56,1111122 
DISL,ioos:station:DISL:CATA:1,2013-07-01T11:30:00Z,30.3085,-88.1395,2.575,17.76,1111122 
DISL,ioos:station:DISL:CATA:1,2013-07-01T12:00:00Z,30.3085,-88.1395,2.587,18.26,1111122 
DISL,ioos:station:DISL:CATA:1,2013-07-01T12:30:00Z,30.3085,-88.1395,2.602,18.96,1111122 
DISL,ioos:station:DISL:CATA:1,2013-07-01T13:00:00Z,30.3085,-88.1395,2.604,18.67,1111122 
DISL,ioos:station:DISL:CATA:1,2013-07-01T13:30:00Z,30.3085,-88.1395,2.578,18.67,1111122 
DISL,ioos:station:DISL:CATA:1,2013-07-01T14:00:00Z,30.3085,-88.1395,2.568,18.36,1111122 
DISL,ioos:station:DISL:CATA:1,2013-07-01T14:30:00Z,30.3085,-88.1395,2.559,18.56,1111122 
DISL,ioos:station:DISL:CATA:1,2013-07-01T15:00:00Z,30.3085,-88.1395,2.541,18.74,1111122 
DISL,ioos:station:DISL:CATA:1,2013-07-01T15:30:00Z,30.3085,-88.1395,2.517,19.01,1111122 
DISL,ioos:station:DISL:CATA:1,2013-07-01T16:00:00Z,30.3085,-88.1395,2.493,17.35,1111122 
DISL,ioos:station:DISL:CATA:1,2013-07-01T16:30:00Z,30.3085,-88.1395,2.465,14.51,1111122 
DISL,ioos:station:DISL:CATA:1,2013-07-01T17:00:00Z,30.3085,-88.1395,2.445,12.06,1111122 
DISL,ioos:station:DISL:CATA:1,2013-07-01T17:30:00Z,30.3085,-88.1395,2.431,11.32,1111122 
DISL,ioos:station:DISL:CATA:1,2013-07-01T18:00:00Z,30.3085,-88.1395,2.407,11.16,1111122 
DISL,ioos:station:DISL:CATA:1,2013-07-01T18:30:00Z,30.3085,-88.1395,2.394,10.71,1111122 
DISL,ioos:station:DISL:CATA:1,2013-07-01T19:00:00Z,30.3085,-88.1395,2.389,10.64,1111122 
DISL,ioos:station:DISL:CATA:1,2013-07-01T19:30:00Z,30.3085,-88.1395,2.379,10.68,1111122 
DISL,ioos:station:DISL:CATA:1,2013-07-01T20:00:00Z,30.3085,-88.1395,2.363,10.98,1111122 
DISL,ioos:station:DISL:CATA:1,2013-07-01T20:30:00Z,30.3085,-88.1395,2.347,10.97,1111122 
DISL,ioos:station:DISL:CATA:1,2013-07-01T21:00:00Z,30.3085,-88.1395,2.339,10.83,1111122 
DISL,ioos:station:DISL:CATA:1,2013-07-01T21:30:00Z,30.3085,-88.1395,2.349,10.08,1111122 
DISL,ioos:station:DISL:CATA:1,2013-07-01T22:00:00Z,30.3085,-88.1395,2.337,10.49,1111122 
DISL,ioos:station:DISL:CATA:1,2013-07-01T22:30:00Z,30.3085,-88.1395,2.325,10.69,1111122 
DISL,ioos:station:DISL:CATA:1,2013-07-01T23:00:00Z,30.3085,-88.1395,2.327,11.02,1111122 
DISL,ioos:station:DISL:CATA:1,2013-07-01T23:30:00Z,30.3085,-88.1395,2.307,11.33,1111122 
DISL,ioos:station:DISL:CATA:1,2013-07-02T00:00:00Z,30.3085,-88.1395,2.317,11.74,1111122 
DISL,ioos:station:DISL:CATA:1,2013-07-02T00:30:00Z,30.3085,-88.1395,2.321,11.58,1111122 
DISL,ioos:station:DISL:CATA:1,2013-07-02T01:00:00Z,30.3085,-88.1395,2.328,11.5,1111122 
DISL,ioos:station:DISL:CATA:1,2013-07-02T01:30:00Z,30.3085,-88.1395,2.325,11.89,1111122 
DISL,ioos:station:DISL:CATA:1,2013-07-02T02:00:00Z,30.3085,-88.1395,2.335,12.38,1111122 
DISL,ioos:station:DISL:CATA:1,2013-07-02T02:30:00Z,30.3085,-88.1395,2.344,12.27,1111122 
DISL,ioos:station:DISL:CATA:1,2013-07-02T03:00:00Z,30.3085,-88.1395,2.348,12.28,1111122 
DISL,ioos:station:DISL:CATA:1,2013-07-02T03:30:00Z,30.3085,-88.1395,2.371,12.44,1111122 
DISL,ioos:station:DISL:CATA:1,2013-07-02T04:00:00Z,30.3085,-88.1395,2.389,12.34,1111122 
DISL,ioos:station:DISL:CATA:1,2013-07-02T04:30:00Z,30.3085,-88.1395,2.413,12.18,1111122 
DISL,ioos:station:DISL:CATA:1,2013-07-02T05:00:00Z,30.3085,-88.1395,2.43,12.19,1111122 
DISL,ioos:station:DISL:CATA:1,2013-07-02T05:30:00Z,30.3085,-88.1395,2.44,11.96,1111122 
DISL,ioos:station:DISL:CATA:1,2013-07-02T06:00:00Z,30.3085,-88.1395,2.448,11.8,1111122 
DISL,ioos:station:DISL:CATA:1,2013-07-02T06:30:00Z,30.3085,-88.1395,2.454,11.72,1111122 
DISL,ioos:station:DISL:CATA:1,2013-07-02T07:00:00Z,30.3085,-88.1395,2.469,11.63,1111122 
DISL,ioos:station:DISL:CATA:1,2013-07-02T07:30:00Z,30.3085,-88.1395,2.492,11.49,1111122 
DISL,ioos:station:DISL:CATA:1,2013-07-02T08:00:00Z,30.3085,-88.1395,2.5,11.99,1111122 
DISL,ioos:station:DISL:CATA:1,2013-07-02T08:30:00Z,30.3085,-88.1395,2.522,12.44,1111122 
DISL,ioos:station:DISL:CATA:1,2013-07-02T09:00:00Z,30.3085,-88.1395,2.535,12.64,1111122 
DISL,ioos:station:DISL:CATA:1,2013-07-02T09:30:00Z,30.3085,-88.1395,2.554,12.93,1111122 
DISL,ioos:station:DISL:CATA:1,2013-07-02T10:00:00Z,30.3085,-88.1395,2.568,13.18,1111122 
DISL,ioos:station:DISL:CATA:1,2013-07-02T10:30:00Z,30.3085,-88.1395,2.577,13.43,1111122 
DISL,ioos:station:DISL:CATA:1,2013-07-02T11:00:00Z,30.3085,-88.1395,2.586,13.62,1111122 
DISL,ioos:station:DISL:CATA:1,2013-07-02T11:30:00Z,30.3085,-88.1395,2.575,14.08,1111122 
DISL,ioos:station:DISL:CATA:1,2013-07-02T12:00:00Z,30.3085,-88.1395,2.571,14.8,1111122 
DISL,ioos:station:DISL:CATA:1,2013-07-02T12:30:00Z,30.3085,-88.1395,2.586,14.83,1111122 
DISL,ioos:station:DISL:CATA:1,2013-07-02T13:00:00Z,30.3085,-88.1395,2.586,14.86,1111122 
DISL,ioos:station:DISL:CATA:1,2013-07-02T13:30:00Z,30.3085,-88.1395,2.574,14.74,1111122 
DISL,ioos:station:DISL:CATA:1,2013-07-02T14:00:00Z,30.3085,-88.1395,2.546,13.73,1111122 
DISL,ioos:station:DISL:CATA:1,2013-07-02T14:30:00Z,30.3085,-88.1395,2.527,12.52,1111122 
DISL,ioos:station:DISL:CATA:1,2013-07-02T15:00:00Z,30.3085,-88.1395,2.515,11.05,1111122 
DISL,ioos:station:DISL:CATA:1,2013-07-02T15:30:00Z,30.3085,-88.1395,2.504,10.97,1111122 
DISL,ioos:station:DISL:CATA:1,2013-07-02T16:00:00Z,30.3085,-88.1395,2.468,10.56,1111122 
DISL,ioos:station:DISL:CATA:1,2013-07-02T16:30:00Z,30.3085,-88.1395,2.442,10.36,1111122 
DISL,ioos:station:DISL:CATA:1,2013-07-02T17:00:00Z,30.3085,-88.1395,2.414,10.07,1111122 
DISL,ioos:station:DISL:CATA:1,2013-07-02T17:30:00Z,30.3085,-88.1395,2.262,11.17,1111122 
DISL,ioos:station:DISL:CATA:1,2013-07-02T18:00:00Z,30.3085,-88.1395,2.226,10.4,1111122 
DISL,ioos:station:DISL:CATA:1,2013-07-02T18:30:00Z,30.3085,-88.1395,2.192,9.97,1111122 
DISL,ioos:station:DISL:CATA:1,2013-07-02T19:00:00Z,30.3085,-88.1395,2.171,9.73,1111122 
DISL,ioos:station:DISL:CATA:1,2013-07-02T19:30:00Z,30.3085,-88.1395,2.15,9.58,1111122 
DISL,ioos:station:DISL:CATA:1,2013-07-02T20:00:00Z,30.3085,-88.1395,2.139,9.34,1111122 
DISL,ioos:station:DISL:CATA:1,2013-07-02T20:30:00Z,30.3085,-88.1395,2.129,9.07,1111122 
DISL,ioos:station:DISL:CATA:1,2013-07-02T21:00:00Z,30.3085,-88.1395,2.116,9.0,1111122 
DISL,ioos:station:DISL:CATA:1,2013-07-02T21:30:00Z,30.3085,-88.1395,2.121,8.95,1111122 
DISL,ioos:station:DISL:CATA:1,2013-07-02T22:00:00Z,30.3085,-88.1395,2.121,8.89,1111122 
DISL,ioos:station:DISL:CATA:1,2013-07-02T22:30:00Z,30.3085,-88.1395,2.117,8.86,1111122 
DISL,ioos:station:DISL:CATA:1,2013-07-02T23:00:00Z,30.3085,-88.1395,2.108,8.86,1111122 
DISL,ioos:station:DISL:CATA:1,2013-07-02T23:30:00Z,30.3085,-88.1395,2.106,8.86,1111122 
DISL,ioos:station:DISL:CATA:1,2013-07-03T00:00:00Z,30.3085,-88.1395,2.116,8.86,1111122 
DISL,ioos:station:DISL:CATA:1,2013-07-03T00:30:00Z,30.3085,-88.1395,2.112,8.85,1111122 
DISL,ioos:station:DISL:CATA:1,2013-07-03T01:00:00Z,30.3085,-88.1395,2.124,8.84,1111122 
DISL,ioos:station:DISL:CATA:1,2013-07-03T01:30:00Z,30.3085,-88.1395,2.141,8.83,1111122 
DISL,ioos:station:DISL:CATA:1,2013-07-03T02:00:00Z,30.3085,-88.1395,2.154,8.84,1111122 
DISL,ioos:station:DISL:CATA:1,2013-07-03T02:30:00Z,30.3085,-88.1395,2.171,8.83,1111122 
DISL,ioos:station:DISL:CATA:1,2013-07-03T03:00:00Z,30.3085,-88.1395,2.201,8.84,1111122 
DISL,ioos:station:DISL:CATA:1,2013-07-03T03:30:00Z,30.3085,-88.1395,2.227,8.85,1111122 
DISL,ioos:station:DISL:CATA:1,2013-07-03T04:00:00Z,30.3085,-88.1395,2.245,8.86,1111122 
DISL,ioos:station:DISL:CATA:1,2013-07-03T04:30:00Z,30.3085,-88.1395,2.255,8.87,1111122 
DISL,ioos:station:DISL:CATA:1,2013-07-03T05:00:00Z,30.3085,-88.1395,2.263,8.9,1111122 
DISL,ioos:station:DISL:CATA:1,2013-07-03T05:30:00Z,30.3085,-88.1395,2.297,8.93,1111122 
DISL,ioos:station:DISL:CATA:1,2013-07-03T06:00:00Z,30.3085,-88.1395,2.311,8.94,1111122 
DISL,ioos:station:DISL:CATA:1,2013-07-03T06:30:00Z,30.3085,-88.1395,2.333,8.95,1111122 
DISL,ioos:station:DISL:CATA:1,2013-07-03T07:00:00Z,30.3085,-88.1395,2.419,4.34,1111122 
DISL,ioos:station:DISL:CATA:1,2013-07-03T07:30:00Z,30.3085,-88.1395,2.437,4.4,1111122 
DISL,ioos:station:DISL:CATA:1,2013-07-03T08:00:00Z,30.3085,-88.1395,2.463,4.53,1111122 
DISL,ioos:station:DISL:CATA:1,2013-07-03T08:30:00Z,30.3085,-88.1395,2.493,4.54,1111122 
DISL,ioos:station:DISL:CATA:1,2013-07-03T09:00:00Z,30.3085,-88.1395,2.525,4.52,1111122 
DISL,ioos:station:DISL:CATA:1,2013-07-03T09:30:00Z,30.3085,-88.1395,2.52,5.18,1111122 
DISL,ioos:station:DISL:CATA:1,2013-07-03T10:00:00Z,30.3085,-88.1395,2.543,4.85,1111122 
DISL,ioos:station:DISL:CATA:1,2013-07-03T10:30:00Z,30.3085,-88.1395,2.574,4.85,1111122 
DISL,ioos:station:DISL:CATA:1,2013-07-03T11:00:00Z,30.3085,-88.1395,2.612,4.86,1111122 
DISL,ioos:station:DISL:CATA:1,2013-07-03T11:30:00Z,30.3085,-88.1395,2.616,5.09,1111122 
DISL,ioos:station:DISL:CATA:1,2013-07-03T12:00:00Z,30.3085,-88.1395,2.634,6.08,1111122 
DISL,ioos:station:DISL:CATA:1,2013-07-03T12:30:00Z,30.3085,-88.1395,2.638,6.65,1111122 
DISL,ioos:station:DISL:CATA:1,2013-07-03T13:00:00Z,30.3085,-88.1395,2.627,7.37,1111122 
DISL,ioos:station:DISL:CATA:1,2013-07-03T13:30:00Z,30.3085,-88.1395,2.619,7.91,1111122 
DISL,ioos:station:DISL:CATA:1,2013-07-03T14:00:00Z,30.3085,-88.1395,2.596,8.35,1111122 
DISL,ioos:station:DISL:CATA:1,2013-07-03T14:30:00Z,30.3085,-88.1395,2.587,8.65,1111122 
DISL,ioos:station:DISL:CATA:1,2013-07-03T15:00:00Z,30.3085,-88.1395,2.57,18.13,1111122 
DISL,ioos:station:DISL:CATA:1,2013-07-03T15:30:00Z,30.3085,-88.1395,2.612,15.53,1111122 
DISL,ioos:station:DISL:CATA:1,2013-07-03T16:00:00Z,30.3085,-88.1395,2.593,8.68,1111122 
DISL,ioos:station:DISL:CATA:1,2013-07-03T16:30:00Z,30.3085,-88.1395,2.581,8.67,1111122 
DISL,ioos:station:DISL:CATA:1,2013-07-03T17:00:00Z,30.3085,-88.1395,2.533,8.99,1111122 
DISL,ioos:station:DISL:CATA:1,2013-07-03T17:30:00Z,30.3085,-88.1395,2.481,9.13,1111122 
DISL,ioos:station:DISL:CATA:1,2013-07-03T18:00:00Z,30.3085,-88.1395,2.449,8.91,1111122 
DISL,ioos:station:DISL:CATA:1,2013-07-03T18:30:00Z,30.3085,-88.1395,2.45,8.76,1111122 
DISL,ioos:station:DISL:CATA:1,2013-07-03T19:00:00Z,30.3085,-88.1395,2.439,8.62,1111122 
DISL,ioos:station:DISL:CATA:1,2013-07-03T19:30:00Z,30.3085,-88.1395,2.411,8.46,1111122 
DISL,ioos:station:DISL:CATA:1,2013-07-03T20:00:00Z,30.3085,-88.1395,2.39,8.45,1111122 
DISL,ioos:station:DISL:CATA:1,2013-07-03T20:30:00Z,30.3085,-88.1395,2.32,8.34,1111122 
DISL,ioos:station:DISL:CATA:1,2013-07-03T21:00:00Z,30.3085,-88.1395,2.34,8.27,1111122 
DISL,ioos:station:DISL:CATA:1,2013-07-03T21:30:00Z,30.3085,-88.1395,2.332,8.29,1111122 
DISL,ioos:station:DISL:CATA:1,2013-07-03T22:00:00Z,30.3085,-88.1395,2.332,8.31,1111122 
DISL,ioos:station:DISL:CATA:1,2013-07-03T22:30:00Z,30.3085,-88.1395,2.349,8.29,1111122 
DISL,ioos:station:DISL:CATA:1,2013-07-03T23:00:00Z,30.3085,-88.1395,2.345,8.25,1111122 
DISL,ioos:station:DISL:CATA:1,2013-07-03T23:30:00Z,30.3085,-88.1395,2.355,8.27,1111122 
DISL,ioos:station:DISL:CATA:1,2013-07-04T00:00:00Z,30.3085,-88.1395,2.351,8.27,1111122 
DISL,ioos:station:DISL:CATA:1,2013-07-04T00:30:00Z,30.3085,-88.1395,2.355,8.27,1111122 
DISL,ioos:station:DISL:CATA:1,2013-07-04T01:00:00Z,30.3085,-88.1395,2.373,8.27,1111122 
DISL,ioos:station:DISL:CATA:1,2013-07-04T01:30:00Z,30.3085,-88.1395,2.377,8.25,1111122 
DISL,ioos:station:DISL:CATA:1,2013-07-04T02:00:00Z,30.3085,-88.1395,2.393,8.24,1111122 
DISL,ioos:station:DISL:CATA:1,2013-07-04T02:30:00Z,30.3085,-88.1395,2.412,8.21,1111122 
DISL,ioos:station:DISL:CATA:1,2013-07-04T03:00:00Z,30.3085,-88.1395,2.425,8.21,1111122 
DISL,ioos:station:DISL:CATA:1,2013-07-04T03:30:00Z,30.3085,-88.1395,2.439,8.2,1111122 
DISL,ioos:station:DISL:CATA:1,2013-07-04T04:00:00Z,30.3085,-88.1395,2.462,8.21,1111122 
DISL,ioos:station:DISL:CATA:1,2013-07-04T04:30:00Z,30.3085,-88.1395,2.497,8.39,1111122 
DISL,ioos:station:DISL:CATA:1,2013-07-04T05:00:00Z,30.3085,-88.1395,2.529,8.17,1111122 
DISL,ioos:station:DISL:CATA:1,2013-07-04T05:30:00Z,30.3085,-88.1395,2.547,8.2,1111122 
DISL,ioos:station:DISL:CATA:1,2013-07-04T06:00:00Z,30.3085,-88.1395,2.53,8.22,1111122 
DISL,ioos:station:DISL:CATA:1,2013-07-04T06:30:00Z,30.3085,-88.1395,2.532,8.37,1111122 
DISL,ioos:station:DISL:CATA:1,2013-07-04T07:00:00Z,30.3085,-88.1395,2.561,8.57,1111122 
DISL,ioos:station:DISL:CATA:1,2013-07-04T07:30:00Z,30.3085,-88.1395,2.594,8.69,1111122 
DISL,ioos:station:DISL:CATA:1,2013-07-04T08:00:00Z,30.3085,-88.1395,2.64,8.59,1111122 
DISL,ioos:station:DISL:CATA:1,2013-07-04T08:30:00Z,30.3085,-88.1395,2.689,8.62,1111122 
DISL,ioos:station:DISL:CATA:1,2013-07-04T09:00:00Z,30.3085,-88.1395,2.708,9.22,1111122 
DISL,ioos:station:DISL:CATA:1,2013-07-04T09:30:00Z,30.3085,-88.1395,2.714,9.58,1111122 
DISL,ioos:station:DISL:CATA:1,2013-07-04T10:00:00Z,30.3085,-88.1395,2.731,8.79,1111122 
DISL,ioos:station:DISL:CATA:1,2013-07-04T10:30:00Z,30.3085,-88.1395,2.757,8.75,1111122 
DISL,ioos:station:DISL:CATA:1,2013-07-04T11:00:00Z,30.3085,-88.1395,2.818,9.64,1111122 
DISL,ioos:station:DISL:CATA:1,2013-07-04T11:30:00Z,30.3085,-88.1395,2.836,9.37,1111122 
DISL,ioos:station:DISL:CATA:1,2013-07-04T12:00:00Z,30.3085,-88.1395,2.847,8.63,1111122 
DISL,ioos:station:DISL:CATA:1,2013-07-04T12:30:00Z,30.3085,-88.1395,2.855,8.71,1111122 
DISL,ioos:station:DISL:CATA:1,2013-07-04T13:00:00Z,30.3085,-88.1395,2.874,8.6,1111122 
DISL,ioos:station:DISL:CATA:1,2013-07-04T13:30:00Z,30.3085,-88.1395,2.857,8.61,1111122 
DISL,ioos:station:DISL:CATA:1,2013-07-04T14:00:00Z,30.3085,-88.1395,2.866,8.98,1111122 
DISL,ioos:station:DISL:CATA:1,2013-07-04T14:30:00Z,30.3085,-88.1395,2.837,11.07,1111122 
DISL,ioos:station:DISL:CATA:1,2013-07-04T15:00:00Z,30.3085,-88.1395,2.839,15.91,1111122 
DISL,ioos:station:DISL:CATA:1,2013-07-04T15:30:00Z,30.3085,-88.1395,2.822,17.91,1111122 
DISL,ioos:station:DISL:CATA:1,2013-07-04T16:00:00Z,30.3085,-88.1395,2.804,18.55,1111122 
DISL,ioos:station:DISL:CATA:1,2013-07-04T16:30:00Z,30.3085,-88.1395,2.784,18.63,1111122 
DISL,ioos:station:DISL:CATA:1,2013-07-04T17:00:00Z,30.3085,-88.1395,2.754,17.67,1111122 
DISL,ioos:station:DISL:CATA:1,2013-07-04T17:30:00Z,30.3085,-88.1395,2.734,14.4,1111122 
DISL,ioos:station:DISL:CATA:1,2013-07-04T18:00:00Z,30.3085,-88.1395,2.708,12.53,1111122 
DISL,ioos:station:DISL:CATA:1,2013-07-04T18:30:00Z,30.3085,-88.1395,2.685,9.19,1111122 
DISL,ioos:station:DISL:CATA:1,2013-07-04T19:00:00Z,30.3085,-88.1395,2.654,9.47,1111122 
DISL,ioos:station:DISL:CATA:1,2013-07-04T19:30:00Z,30.3085,-88.1395,2.62,9.57,1111122 
DISL,ioos:station:DISL:CATA:1,2013-07-04T20:00:00Z,30.3085,-88.1395,2.603,9.47,1111122 
DISL,ioos:station:DISL:CATA:1,2013-07-04T20:30:00Z,30.3085,-88.1395,2.573,9.45,1111122 
DISL,ioos:station:DISL:CATA:1,2013-07-04T21:00:00Z,30.3085,-88.1395,2.565,9.42,1111122 
DISL,ioos:station:DISL:CATA:1,2013-07-04T21:30:00Z,30.3085,-88.1395,2.536,9.51,1111122 
DISL,ioos:station:DISL:CATA:1,2013-07-04T22:00:00Z,30.3085,-88.1395,2.524,9.52,1111122 
DISL,ioos:station:DISL:CATA:1,2013-07-04T22:30:00Z,30.3085,-88.1395,2.533,9.64,1111122 
DISL,ioos:station:DISL:CATA:1,2013-07-04T23:00:00Z,30.3085,-88.1395,2.5,9.92,1111122 
DISL,ioos:station:DISL:CATA:1,2013-07-04T23:30:00Z,30.3085,-88.1395,2.508,10.25,1111122 
DISL,ioos:station:DISL:CATA:1,2013-07-05T00:00:00Z,30.3085,-88.1395,2.518,10.99,1111122 
DISL,ioos:station:DISL:CATA:1,2013-07-05T00:30:00Z,30.3085,-88.1395,2.553,11.29,1111122 
DISL,ioos:station:DISL:CATA:1,2013-07-05T01:00:00Z,30.3085,-88.1395,2.575,12.24,1111122 
DISL,ioos:station:DISL:CATA:1,2013-07-05T01:30:00Z,30.3085,-88.1395,2.574,12.81,1111122 
DISL,ioos:station:DISL:CATA:1,2013-07-05T02:00:00Z,30.3085,-88.1395,2.598,14.31,1111122 
DISL,ioos:station:DISL:CATA:1,2013-07-05T02:30:00Z,30.3085,-88.1395,2.612,15.91,1111122 
DISL,ioos:station:DISL:CATA:1,2013-07-05T03:00:00Z,30.3085,-88.1395,2.642,17.42,1111122 
DISL,ioos:station:DISL:CATA:1,2013-07-05T03:30:00Z,30.3085,-88.1395,2.662,17.86,1111122 
DISL,ioos:station:DISL:CATA:1,2013-07-05T04:00:00Z,30.3085,-88.1395,2.676,17.61,1111122 
DISL,ioos:station:DISL:CATA:1,2013-07-05T04:30:00Z,30.3085,-88.1395,2.692,17.22,1111122 
DISL,ioos:station:DISL:CATA:1,2013-07-05T05:00:00Z,30.3085,-88.1395,2.714,16.52,1111122 
DISL,ioos:station:DISL:CATA:1,2013-07-05T05:30:00Z,30.3085,-88.1395,2.73,15.64,1111122 
DISL,ioos:station:DISL:CATA:1,2013-07-05T06:00:00Z,30.3085,-88.1395,2.752,14.72,1111122 
DISL,ioos:station:DISL:CATA:1,2013-07-05T06:30:00Z,30.3085,-88.1395,2.763,14.21,1111122 
DISL,ioos:station:DISL:CATA:1,2013-07-05T07:00:00Z,30.3085,-88.1395,2.784,14.16,1111122 
DISL,ioos:station:DISL:CATA:1,2013-07-05T07:30:00Z,30.3085,-88.1395,2.788,14.15,1111122 
DISL,ioos:station:DISL:CATA:1,2013-07-05T08:00:00Z,30.3085,-88.1395,2.831,14.07,1111122 
DISL,ioos:station:DISL:CATA:1,2013-07-05T08:30:00Z,30.3085,-88.1395,2.838,13.99,1111122 
DISL,ioos:station:DISL:CATA:1,2013-07-05T09:00:00Z,30.3085,-88.1395,2.845,13.83,1111122 
DISL,ioos:station:DISL:CATA:1,2013-07-05T09:30:00Z,30.3085,-88.1395,2.844,13.72,1111122 
DISL,ioos:station:DISL:CATA:1,2013-07-05T10:00:00Z,30.3085,-88.1395,2.843,13.59,1111122 
DISL,ioos:station:DISL:CATA:1,2013-07-05T10:30:00Z,30.3085,-88.1395,2.843,13.53,1111122 
DISL,ioos:station:DISL:CATA:1,2013-07-05T11:00:00Z,30.3085,-88.1395,2.855,14.28,1111122 
DISL,ioos:station:DISL:CATA:1,2013-07-05T11:30:00Z,30.3085,-88.1395,2.853,15.94,1111122 
DISL,ioos:station:DISL:CATA:1,2013-07-05T12:00:00Z,30.3085,-88.1395,2.87,16.22,1111122 
DISL,ioos:station:DISL:CATA:1,2013-07-05T12:30:00Z,30.3085,-88.1395,2.892,16.67,1111122 
DISL,ioos:station:DISL:CATA:1,2013-07-05T13:00:00Z,30.3085,-88.1395,2.931,16.67,1111122 
DISL,ioos:station:DISL:CATA:1,2013-07-05T13:30:00Z,30.3085,-88.1395,2.964,16.54,1111122 
DISL,ioos:station:DISL:CATA:1,2013-07-05T14:00:00Z,30.3085,-88.1395,2.952,16.79,1111122 
DISL,ioos:station:DISL:CATA:1,2013-07-05T14:30:00Z,30.3085,-88.1395,2.895,16.92,1111122 
DISL,ioos:station:DISL:CATA:1,2013-07-05T15:00:00Z,30.3085,-88.1395,2.89,16.92,1111122 
DISL,ioos:station:DISL:CATA:1,2013-07-05T15:30:00Z,30.3085,-88.1395,2.883,16.91,1111122 
DISL,ioos:station:DISL:CATA:1,2013-07-05T16:00:00Z,30.3085,-88.1395,2.897,16.82,1111122 
DISL,ioos:station:DISL:CATA:1,2013-07-05T16:30:00Z,30.3085,-88.1395,2.908,16.93,1111122 
DISL,ioos:station:DISL:CATA:1,2013-07-05T17:00:00Z,30.3085,-88.1395,2.875,16.73,1111122 
DISL,ioos:station:DISL:CATA:1,2013-07-05T17:30:00Z,30.3085,-88.1395,2.852,16.45,1111122 
DISL,ioos:station:DISL:CATA:1,2013-07-05T18:00:00Z,30.3085,-88.1395,2.83,16.43,1111122 
DISL,ioos:station:DISL:CATA:1,2013-07-05T18:30:00Z,30.3085,-88.1395,2.795,16.23,1111122 
DISL,ioos:station:DISL:CATA:1,2013-07-05T19:00:00Z,30.3085,-88.1395,2.757,15.97,1111122 
DISL,ioos:station:DISL:CATA:1,2013-07-05T19:30:00Z,30.3085,-88.1395,2.713,16.24,1111122 
DISL,ioos:station:DISL:CATA:1,2013-07-05T20:00:00Z,30.3085,-88.1395,2.696,16.38,1111122 
DISL,ioos:station:DISL:CATA:1,2013-07-05T20:30:00Z,30.3085,-88.1395,2.645,16.9,1111122 
DISL,ioos:station:DISL:CATA:1,2013-07-05T21:00:00Z,30.3085,-88.1395,2.598,16.81,1111122 
DISL,ioos:station:DISL:CATA:1,2013-07-05T21:30:00Z,30.3085,-88.1395,2.555,16.76,1111122 
DISL,ioos:station:DISL:CATA:1,2013-07-05T22:00:00Z,30.3085,-88.1395,2.536,16.96,1111122 
DISL,ioos:station:DISL:CATA:1,2013-07-05T22:30:00Z,30.3085,-88.1395,2.514,17.4,1111122 
DISL,ioos:station:DISL:CATA:1,2013-07-05T23:00:00Z,30.3085,-88.1395,2.499,17.14,1111122 
DISL,ioos:station:DISL:CATA:1,2013-07-05T23:30:00Z,30.3085,-88.1395,2.44,16.74,1111122 
DISL,ioos:station:DISL:CATA:1,2013-07-06T00:00:00Z,30.3085,-88.1395,2.424,16.02,1111122 
DISL,ioos:station:DISL:CATA:1,2013-07-06T00:30:00Z,30.3085,-88.1395,2.411,15.82,1111122 
DISL,ioos:station:DISL:CATA:1,2013-07-06T01:00:00Z,30.3085,-88.1395,2.412,15.55,1111122 
DISL,ioos:station:DISL:CATA:1,2013-07-06T01:30:00Z,30.3085,-88.1395,2.424,15.72,1111122 
DISL,ioos:station:DISL:CATA:1,2013-07-06T02:00:00Z,30.3085,-88.1395,2.482,15.25,1111122 
DISL,ioos:station:DISL:CATA:1,2013-07-06T02:30:00Z,30.3085,-88.1395,2.54,16.14,1111122 
DISL,ioos:station:DISL:CATA:1,2013-07-06T03:00:00Z,30.3085,-88.1395,2.558,16.38,1111122 
DISL,ioos:station:DISL:CATA:1,2013-07-06T03:30:00Z,30.3085,-88.1395,2.564,16.69,1111122 
DISL,ioos:station:DISL:CATA:1,2013-07-06T04:00:00Z,30.3085,-88.1395,2.546,16.69,1111122 
DISL,ioos:station:DISL:CATA:1,2013-07-06T04:30:00Z,30.3085,-88.1395,2.564,16.69,1111122 
DISL,ioos:station:DISL:CATA:1,2013-07-06T05:00:00Z,30.3085,-88.1395,2.603,16.52,1111122 
DISL,ioos:station:DISL:CATA:1,2013-07-06T05:30:00Z,30.3085,-88.1395,2.703,16.89,1111122 
DISL,ioos:station:DISL:CATA:1,2013-07-06T06:00:00Z,30.3085,-88.1395,2.744,17.53,1111122 
DISL,ioos:station:DISL:CATA:1,2013-07-06T06:30:00Z,30.3085,-88.1395,2.745,17.69,1111122 
DISL,ioos:station:DISL:CATA:1,2013-07-06T07:00:00Z,30.3085,-88.1395,2.737,16.94,1111122 
DISL,ioos:station:DISL:CATA:1,2013-07-06T07:30:00Z,30.3085,-88.1395,2.738,17.13,1111122 
DISL,ioos:station:DISL:CATA:1,2013-07-06T08:00:00Z,30.3085,-88.1395,2.741,17.12,1111122 
DISL,ioos:station:DISL:CATA:1,2013-07-06T08:30:00Z,30.3085,-88.1395,2.771,16.86,1111122 
DISL,ioos:station:DISL:CATA:1,2013-07-06T09:00:00Z,30.3085,-88.1395,2.771,16.88,1111122 
DISL,ioos:station:DISL:CATA:1,2013-07-06T09:30:00Z,30.3085,-88.1395,2.79,17.03,1111122 
DISL,ioos:station:DISL:CATA:1,2013-07-06T10:00:00Z,30.3085,-88.1395,2.806,16.64,1111122 
DISL,ioos:station:DISL:CATA:1,2013-07-06T10:30:00Z,30.3085,-88.1395,2.826,16.59,1111122 
DISL,ioos:station:DISL:CATA:1,2013-07-06T11:00:00Z,30.3085,-88.1395,2.872,17.59,1111122 
DISL,ioos:station:DISL:CATA:1,2013-07-06T11:30:00Z,30.3085,-88.1395,2.929,17.61,1111122 
DISL,ioos:station:DISL:CATA:1,2013-07-06T12:00:00Z,30.3085,-88.1395,2.982,17.38,1111122 
DISL,ioos:station:DISL:CATA:1,2013-07-06T12:30:00Z,30.3085,-88.1395,2.996,17.11,1111122 
DISL,ioos:station:DISL:CATA:1,2013-07-06T13:00:00Z,30.3085,-88.1395,3.033,17.16,1111122 
DISL,ioos:station:DISL:CATA:1,2013-07-06T13:30:00Z,30.3085,-88.1395,2.955,16.55,1111122 
DISL,ioos:station:DISL:CATA:1,2013-07-06T14:00:00Z,30.3085,-88.1395,2.926,17.42,1111122 
DISL,ioos:station:DISL:CATA:1,2013-07-06T14:30:00Z,30.3085,-88.1395,2.992,17.38,1111122 